M I D A S
Marine Information and Data Acquisition System
Tripno 1685 of the Zeeleeuw from 2009-04-30 07:18:56 to 2009-04-30 13:35:03
Back to CruiseResearch ActivitiesStationsMapUnderway DataData graphs

EquipmentUnitsComments
TimeDGPSUTC
LatitudeDGPSDM.mWGS84
LongitudeDGPSDM.mWGS84
SpeedMeteo Stationm/sRelative wind speed
DirectionMeteo StationdegRelative wind direction
TemperatureMeteo Stationdeg CelciusAir temperature
PressureMeteo StationPaAtmospheric pressure
HumidityMeteo Station%Relative humidity
Missing or incorrect values are displayed as -999
Metereological data collected by the RV Zeeleeuw from 2009-04-30 07:12:34 to 2009-04-30 13:46:19
Time Latitude Longitude Speed Direction Temperature Pressure Humidity
2009-04-30 07:13 51°13.671 2°55.925 1.4 15 12.1 101680 75
2009-04-30 07:14 51°13.683 2°55.865 1.4 26 12.2 101680 75
2009-04-30 07:15 51°13.692 2°55.787 2 32 12.2 101690 73
2009-04-30 07:16 51°13.698 2°55.758 2.2 26 12.1 101690 71
2009-04-30 07:17 51°13.715 2°55.767 2.5 56 12.1 101690 71
2009-04-30 07:18 51°13.711 2°55.76 1.3 57 12.1 101690 72
2009-04-30 07:19 51°13.774 2°55.69 0.3 302 12.2 101700 71
2009-04-30 07:20 51°13.848 2°55.635 1.4 307 12.3 101700 72
2009-04-30 07:21 51°13.959 2°55.576 2.3 304 12.4 101700 71
2009-04-30 07:22 51°14.075 2°55.471 2.2 310 12.5 101700 69
2009-04-30 07:23 51°14.21 2°55.334 3.3 325 12.6 101700 68
2009-04-30 07:24 51°14.335 2°55.119 4.9 302 12.6 101700 68
2009-04-30 07:25 51°14.433 2°54.845 6.2 302 12.6 101690 67
2009-04-30 07:26 51°14.546 2°54.57 5.6 304 12.6 101690 67
2009-04-30 07:27 51°14.684 2°54.333 4.2 305 12.6 101700 69
2009-04-30 07:28 51°14.86 2°54.175 5.2 301 12.5 101700 70
2009-04-30 07:29 51°15.035 2°54.015 4.5 305 12.4 101710 70
2009-04-30 07:30 51°15.215 2°53.865 4.8 309 12.4 101710 72
2009-04-30 07:31 51°15.394 2°53.716 5.3 310 12.3 101710 73
2009-04-30 07:32 51°15.57 2°53.574 6.7 308 12.3 101700 73
2009-04-30 07:33 51°15.753 2°53.446 4.5 310 12.2 101710 73
2009-04-30 07:34 51°15.939 2°53.319 5.3 307 12.1 101710 74
2009-04-30 07:35 51°16.126 2°53.192 5.4 307 12 101710 75
2009-04-30 07:36 51°16.32 2°53.123 3.8 300 11.9 101710 76
2009-04-30 07:37 51°16.518 2°53.133 3.8 308 11.9 101720 77
2009-04-30 07:38 51°16.717 2°53.139 4.4 303 11.8 101720 77
2009-04-30 07:39 51°16.916 2°53.145 4 309 11.8 101710 78
2009-04-30 07:40 51°17.114 2°53.15 3.2 307 11.8 101720 76
2009-04-30 07:41 51°17.311 2°53.192 3.4 330 11.8 101720 75
2009-04-30 07:42 51°17.492 2°53.315 4.2 331 11.8 101720 75
2009-04-30 07:43 51°17.663 2°53.474 3.5 331 11.8 101720 78
2009-04-30 07:44 51°17.834 2°53.628 4 332 11.8 101720 78
2009-04-30 07:45 51°18.005 2°53.781 3.5 334 11.8 101720 77
2009-04-30 07:46 51°18.172 2°53.943 4.3 338 11.7 101720 78
2009-04-30 07:47 51°18.322 2°54.14 4.7 341 11.6 101720 78
2009-04-30 07:48 51°18.461 2°54.349 4.9 341 11.6 101720 79
2009-04-30 07:49 51°18.56 2°54.604 5.3 340 11.5 101720 80
2009-04-30 07:50 51°18.651 2°54.872 5.8 341 11.5 101720 80
2009-04-30 07:51 51°18.735 2°55.148 5.2 341 11.6 101720 79
2009-04-30 07:52 51°18.815 2°55.424 5.4 339 11.6 101720 79
2009-04-30 07:53 51°18.897 2°55.699 5.2 339 11.7 101720 79
2009-04-30 07:54 51°18.978 2°55.971 5.3 341 11.7 101720 78
2009-04-30 07:55 51°19.053 2°56.249 4.8 338 11.8 101720 77
2009-04-30 07:56 51°19.135 2°56.521 5.3 338 11.8 101730 76
2009-04-30 07:57 51°19.216 2°56.791 4.8 335 11.8 101730 75
2009-04-30 07:58 51°19.297 2°57.063 5.6 337 11.9 101730 76
2009-04-30 07:59 51°19.381 2°57.33 5.6 339 11.9 101730 77
2009-04-30 08:00 51°19.461 2°57.599 5.4 340 11.9 101730 77
2009-04-30 08:01 51°19.54 2°57.866 6.2 337 11.9 101730 77
2009-04-30 08:02 51°19.611 2°58.136 6.5 337 11.8 101730 78
2009-04-30 08:03 51°19.681 2°58.407 5.8 334 11.8 101730 79
2009-04-30 08:04 51°19.752 2°58.68 5.8 335 11.7 101730 79
2009-04-30 08:05 51°19.824 2°58.952 6.4 337 11.7 101730 80
2009-04-30 08:06 51°19.895 2°59.221 5.7 337 11.8 101730 80
2009-04-30 08:07 51°19.966 2°59.488 5.4 333 11.8 101730 79
2009-04-30 08:08 51°20.039 2°59.756 5.6 331 11.8 101730 78
2009-04-30 08:09 51°20.109 3°0.022 5.9 332 11.7 101730 78
2009-04-30 08:10 51°20.176 3°0.292 5.9 331 11.7 101730 78
2009-04-30 08:11 51°20.246 3°0.558 5 330 11.7 101730 78
2009-04-30 08:12 51°20.316 3°0.823 5.6 330 11.8 101730 77
2009-04-30 08:13 51°20.385 3°1.088 5.9 332 11.8 101740 77
2009-04-30 08:14 51°20.451 3°1.354 5.3 333 11.9 101730 77
2009-04-30 08:15 51°20.518 3°1.618 4.9 336 12 101730 79
2009-04-30 08:16 51°20.584 3°1.884 5.6 338 12.1 101740 78
2009-04-30 08:17 51°20.653 3°2.147 5.7 337 12.1 101730 78
2009-04-30 08:18 51°20.721 3°2.41 5.7 334 12.1 101730 77
2009-04-30 08:19 51°20.786 3°2.673 4.9 336 12.2 101730 77
2009-04-30 08:20 51°20.852 3°2.936 5.1 337 12.2 101740 77
2009-04-30 08:21 51°20.916 3°3.199 5.4 335 12.2 101740 78
2009-04-30 08:22 51°20.98 3°3.466 5.4 335 12.2 101740 78
2009-04-30 08:23 51°21.046 3°3.731 5 333 12.2 101740 78
2009-04-30 08:24 51°21.11 3°3.997 5.1 333 12.2 101740 78
2009-04-30 08:25 51°21.172 3°4.264 5.3 333 12.2 101740 78
2009-04-30 08:26 51°21.24 3°4.527 5 334 12.2 101740 77
2009-04-30 08:27 51°21.305 3°4.786 5.1 333 12.2 101740 78
2009-04-30 08:28 51°21.368 3°5.048 5 335 12.3 101740 79
2009-04-30 08:29 51°21.428 3°5.308 5 333 12.4 101740 80
2009-04-30 08:30 51°21.489 3°5.569 5.4 333 12.4 101740 80
2009-04-30 08:31 51°21.553 3°5.826 4.4 331 12.4 101740 80
2009-04-30 08:32 51°21.603 3°6.018 2.9 334 12.4 101740 80
2009-04-30 08:33 51°21.639 3°6.158 2.4 328 12.4 101740 80
2009-04-30 08:34 51°21.685 3°6.323 4.3 331 12.5 101750 79
2009-04-30 08:35 51°21.75 3°6.567 5.3 331 12.6 101740 78
2009-04-30 08:36 51°21.79 3°6.836 5.1 333 12.6 101750 78
2009-04-30 08:37 51°21.804 3°7.108 4.7 332 12.6 101750 77
2009-04-30 08:38 51°21.812 3°7.378 4.6 331 12.5 101750 78
2009-04-30 08:39 51°21.826 3°7.64 4.5 328 12.5 101750 79
2009-04-30 08:40 51°21.845 3°7.899 4.8 330 12.5 101750 78
2009-04-30 08:41 51°21.856 3°8.157 5 333 12.5 101750 78
2009-04-30 08:42 51°21.865 3°8.413 4.3 334 12.5 101750 77
2009-04-30 08:43 51°21.85 3°8.595 2.3 352 12.6 101760 77
2009-04-30 08:44 51°21.768 3°8.587 3.3 339 12.5 101760 75
2009-04-30 08:45 51°21.726 3°8.439 2.7 328 12.4 101760 78
2009-04-30 08:46 51°21.722 3°8.313 2.8 302 12.5 101760 78
2009-04-30 08:47 51°21.726 3°8.207 2.9 302 12.5 101760 77
2009-04-30 08:48 51°21.753 3°8.122 2.8 302 12.6 101760 77
2009-04-30 08:49 51°21.798 3°8.086 1.7 307 12.6 101760 78
2009-04-30 08:50 51°21.828 3°8.063 1.5 304 12.8 101760 78
2009-04-30 08:51 51°21.888 3°8.085 2.4 304 12.9 101760 78
2009-04-30 08:52 51°21.936 3°8.117 1.3 308 13 101760 78
2009-04-30 08:53 51°21.973 3°8.154 1.3 302 13.1 101760 77
2009-04-30 08:54 51°22.024 3°8.159 2.3 304 13.2 101760 77
2009-04-30 08:55 51°22.084 3°8.088 2.7 305 13.2 101760 76
2009-04-30 08:56 51°22.137 3°8.017 2 304 13.2 101760 76
2009-04-30 08:57 51°22.182 3°7.949 2.3 303 13.2 101760 76
2009-04-30 08:58 51°22.224 3°7.885 2.3 304 13.2 101760 76
2009-04-30 08:59 51°22.266 3°7.821 3 303 13.2 101760 76
2009-04-30 09:00 51°22.308 3°7.761 2.6 301 13.2 101760 75
2009-04-30 09:01 51°22.351 3°7.703 3 303 13.1 101760 75
2009-04-30 09:02 51°22.393 3°7.644 3 301 13.1 101760 75
2009-04-30 09:03 51°22.436 3°7.587 3 302 13.1 101760 75
2009-04-30 09:04 51°22.479 3°7.531 2.7 301 13.1 101760 75
2009-04-30 09:05 51°22.522 3°7.475 2.3 308 13.1 101770 75
2009-04-30 09:06 51°22.566 3°7.419 2.7 302 13.1 101770 76
2009-04-30 09:07 51°22.611 3°7.363 2.8 307 13.1 101770 77
2009-04-30 09:08 51°22.654 3°7.302 2.3 304 13.1 101770 77
2009-04-30 09:09 51°22.693 3°7.232 3.2 303 13.1 101770 77
2009-04-30 09:10 51°22.724 3°7.149 2.8 308 13.1 101770 77
2009-04-30 09:11 51°22.746 3°7.066 2.2 304 13.1 101770 76
2009-04-30 09:12 51°22.766 3°6.986 2.1 302 13.2 101770 76
2009-04-30 09:13 51°22.785 3°6.908 1.7 302 13.2 101770 76
2009-04-30 09:14 51°22.804 3°6.833 2.2 300 13.3 101770 76
2009-04-30 09:15 51°22.823 3°6.76 2 323 13.4 101770 75
2009-04-30 09:16 51°22.843 3°6.685 2 324 13.4 101770 74
2009-04-30 09:17 51°22.863 3°6.61 1.9 303 13.5 101770 74
2009-04-30 09:18 51°22.883 3°6.536 1.7 324 13.6 101770 74
2009-04-30 09:19 51°22.903 3°6.462 1.9 305 13.6 101770 73
2009-04-30 09:20 51°22.924 3°6.388 1.6 327 13.6 101770 73
2009-04-30 09:21 51°22.945 3°6.316 1.8 326 13.7 101770 73
2009-04-30 09:22 51°22.966 3°6.244 1.3 327 13.8 101770 73
2009-04-30 09:23 51°22.987 3°6.172 1.6 326 13.9 101770 74
2009-04-30 09:24 51°23.008 3°6.101 1.4 323 14 101770 72
2009-04-30 09:25 51°23.03 3°6.034 1.4 324 14 101770 71
2009-04-30 09:26 51°23.049 3°5.966 1.4 302 14 101770 70
2009-04-30 09:27 51°23.067 3°5.902 1.1 304 14 101770 71
2009-04-30 09:28 51°23.089 3°5.853 1.1 304 14.1 101770 71
2009-04-30 09:29 51°23.104 3°5.812 0.8 304 14.1 101770 71
2009-04-30 09:30 51°23.114 3°5.769 0.6 304 14.2 101770 71
2009-04-30 09:31 51°23.121 3°5.725 0.9 308 14.4 101770 71
2009-04-30 09:32 51°23.131 3°5.635 2.8 330 14.5 101770 69
2009-04-30 09:33 51°23.063 3°5.458 5.8 332 14.2 101770 68
2009-04-30 09:34 51°22.959 3°5.17 7.2 331 13.8 101770 72
2009-04-30 09:35 51°22.854 3°4.866 7.7 331 13.5 101770 72
2009-04-30 09:36 51°22.737 3°4.568 6.3 331 13.3 101770 72
2009-04-30 09:37 51°22.617 3°4.275 6.7 333 13.2 101760 73
2009-04-30 09:38 51°22.498 3°3.979 6.7 334 13.1 101770 74
2009-04-30 09:39 51°22.378 3°3.681 7.9 333 13.1 101760 73
2009-04-30 09:40 51°22.258 3°3.383 6.7 333 13.1 101760 72
2009-04-30 09:41 51°22.137 3°3.086 8.2 332 13.1 101760 72
2009-04-30 09:42 51°22.016 3°2.79 6.8 330 13.1 101760 72
2009-04-30 09:43 51°21.895 3°2.495 6.9 334 13.1 101760 73
2009-04-30 09:44 51°21.777 3°2.197 6.2 333 13.1 101760 73
2009-04-30 09:45 51°21.653 3°1.906 6.8 332 13.1 101760 75
2009-04-30 09:46 51°21.528 3°1.615 6.7 335 13.1 101760 74
2009-04-30 09:47 51°21.398 3°1.329 7.6 333 13.1 101770 74
2009-04-30 09:48 51°21.261 3°1.055 6.5 333 13.1 101760 75
2009-04-30 09:49 51°21.126 3°0.779 7.3 333 13.1 101760 75
2009-04-30 09:50 51°20.993 3°0.499 7.2 334 13.1 101760 74
2009-04-30 09:51 51°20.861 3°0.219 6.1 332 13.1 101760 75
2009-04-30 09:52 51°20.731 2°59.931 7.7 331 13.1 101760 76
2009-04-30 09:53 51°20.6 2°59.644 7.2 334 13.2 101760 76
2009-04-30 09:54 51°20.465 2°59.36 6.6 335 13.2 101760 75
2009-04-30 09:55 51°20.322 2°59.086 7.7 337 13.3 101760 75
2009-04-30 09:56 51°20.18 2°58.812 7.3 337 13.3 101770 74
2009-04-30 09:57 51°20.037 2°58.539 6.7 335 13.3 101770 76
2009-04-30 09:58 51°19.9 2°58.259 8.4 335 13.3 101770 76
2009-04-30 09:59 51°19.764 2°57.978 8.1 337 13.3 101770 76
2009-04-30 10:00 51°19.628 2°57.698 7.5 335 13.3 101770 76
2009-04-30 10:01 51°19.49 2°57.419 8 337 13.3 101770 77
2009-04-30 10:02 51°19.353 2°57.138 8.5 335 13.3 101770 76
2009-04-30 10:03 51°19.217 2°56.859 8.9 336 13.3 101760 76
2009-04-30 10:04 51°19.081 2°56.579 7.5 337 13.4 101760 77
2009-04-30 10:05 51°18.946 2°56.301 8.5 336 13.4 101760 77
2009-04-30 10:06 51°18.81 2°56.025 7.4 335 13.4 101760 77
2009-04-30 10:07 51°18.674 2°55.75 8.3 338 13.4 101760 77
2009-04-30 10:08 51°18.538 2°55.476 7.1 335 13.3 101760 77
2009-04-30 10:09 51°18.401 2°55.206 6.8 336 13.4 101760 78
2009-04-30 10:10 51°18.277 2°54.92 6.8 336 13.4 101760 77
2009-04-30 10:11 51°18.163 2°54.625 7.6 336 13.3 101760 76
2009-04-30 10:12 51°18.046 2°54.333 6.9 335 13.3 101760 77
2009-04-30 10:13 51°17.928 2°54.046 6.2 335 13.3 101770 79
2009-04-30 10:14 51°17.812 2°53.759 6.1 334 13.3 101760 80
2009-04-30 10:15 51°17.645 2°53.556 6.3 338 13.3 101760 80
2009-04-30 10:16 51°17.444 2°53.45 6.7 336 13.3 101770 78
2009-04-30 10:17 51°17.244 2°53.341 6.8 337 13.3 101770 78
2009-04-30 10:18 51°17.052 2°53.202 5.7 337 13.3 101760 77
2009-04-30 10:19 51°16.86 2°53.077 5.8 337 13.4 101760 77
2009-04-30 10:20 51°16.651 2°53.064 4.8 335 13.4 101760 77
2009-04-30 10:21 51°16.452 2°53.142 4.5 333 13.4 101760 78
2009-04-30 10:22 51°16.252 2°53.223 4.7 303 13.5 101760 79
2009-04-30 10:23 51°16.053 2°53.298 5.5 302 13.5 101760 79
2009-04-30 10:24 51°15.853 2°53.367 5 327 13.6 101760 78
2009-04-30 10:25 51°15.655 2°53.446 5.4 327 13.7 101760 78
2009-04-30 10:26 51°15.457 2°53.526 5 328 13.7 101760 78
2009-04-30 10:27 51°15.26 2°53.606 4.7 304 13.7 101760 74
2009-04-30 10:28 51°15.064 2°53.69 4.9 332 13.7 101760 73
2009-04-30 10:29 51°14.867 2°53.774 4.8 334 13.7 101760 74
2009-04-30 10:30 51°14.668 2°53.843 4 340 13.7 101760 74
2009-04-30 10:31 51°14.464 2°53.831 4.4 338 13.7 101760 75
2009-04-30 10:32 51°14.289 2°53.654 5.7 341 13.6 101760 73
2009-04-30 10:33 51°14.176 2°53.364 5.8 339 13.7 101750 75
2009-04-30 10:34 51°14.079 2°53.052 6.4 335 13.7 101750 74
2009-04-30 10:35 51°13.97 2°52.746 6.3 333 13.7 101750 70
2009-04-30 10:36 51°13.856 2°52.445 6.1 330 13.8 101750 73
2009-04-30 10:37 51°13.741 2°52.146 9.3 326 13.8 101750 62
2009-04-30 10:38 51°13.623 2°51.847 8.2 322 14.3 101750 56
2009-04-30 10:39 51°13.506 2°51.548 9.5 301 14.6 101740 51
2009-04-30 10:40 51°13.386 2°51.251 9.9 307 14.9 101740 51
2009-04-30 10:41 51°13.265 2°50.961 8.7 308 15 101740 51
2009-04-30 10:42 51°13.144 2°50.675 8.4 303 15.2 101750 51
2009-04-30 10:43 51°13.031 2°50.377 8.1 305 15.3 101750 50
2009-04-30 10:44 51°12.915 2°50.081 7.5 332 15.3 101750 54
2009-04-30 10:45 51°12.798 2°49.782 8.9 325 15.1 101760 58
2009-04-30 10:46 51°12.68 2°49.479 9.7 307 15 101750 53
2009-04-30 10:47 51°12.56 2°49.177 8.7 300 15.1 101740 50
2009-04-30 10:48 51°12.44 2°48.876 8.4 303 15.2 101740 51
2009-04-30 10:49 51°12.318 2°48.577 8.2 304 15.3 101740 49
2009-04-30 10:50 51°12.195 2°48.28 9.7 304 15.4 101740 49
2009-04-30 10:51 51°12.087 2°47.973 9 306 15.4 101740 47
2009-04-30 10:52 51°12 2°47.649 9 303 15.4 101740 51
2009-04-30 10:53 51°11.918 2°47.317 6.1 306 15.4 101740 50
2009-04-30 10:54 51°11.83 2°46.991 7 304 15.4 101740 51
2009-04-30 10:55 51°11.739 2°46.669 7.3 307 15.4 101750 49
2009-04-30 10:56 51°11.65 2°46.346 6.7 302 15.3 101730 49
2009-04-30 10:57 51°11.564 2°46.025 6.5 304 15.4 101740 50
2009-04-30 10:58 51°11.479 2°45.704 6.9 324 15.4 101740 49
2009-04-30 10:59 51°11.404 2°45.378 7.1 307 15.5 101740 47
2009-04-30 11:00 51°11.34 2°45.045 7.6 301 15.6 101740 47
2009-04-30 11:01 51°11.276 2°44.711 7.6 324 15.7 101740 46
2009-04-30 11:02 51°11.201 2°44.382 8.8 304 15.7 101740 47
2009-04-30 11:03 51°11.11 2°44.064 6.6 306 15.7 101740 47
2009-04-30 11:04 51°11.01 2°43.752 9.8 307 15.6 101730 47
2009-04-30 11:05 51°10.911 2°43.441 7.2 310 15.7 101730 47
2009-04-30 11:06 51°10.813 2°43.131 6.4 306 15.7 101740 46
2009-04-30 11:07 51°10.716 2°42.82 6.8 308 15.8 101730 46
2009-04-30 11:08 51°10.614 2°42.515 7.8 302 15.8 101740 47
2009-04-30 11:09 51°10.52 2°42.207 7 303 15.8 101740 49
2009-04-30 11:10 51°10.427 2°41.901 7.2 308 15.9 101730 47
2009-04-30 11:11 51°10.336 2°41.595 8.9 327 15.9 101730 49
2009-04-30 11:12 51°10.248 2°41.284 6.5 302 15.8 101740 48
2009-04-30 11:13 51°10.157 2°40.976 7 303 15.8 101740 49
2009-04-30 11:14 51°10.065 2°40.671 7.5 300 15.7 101730 47
2009-04-30 11:15 51°9.972 2°40.369 7 303 15.7 101730 48
2009-04-30 11:16 51°9.882 2°40.062 7.6 309 15.8 101720 48
2009-04-30 11:17 51°9.795 2°39.754 5.5 339 15.9 101730 49
2009-04-30 11:18 51°9.703 2°39.45 6.6 345 15.5 101730 52
2009-04-30 11:19 51°9.613 2°39.145 5.2 349 14.9 101730 59
2009-04-30 11:20 51°9.52 2°38.843 6.2 340 14.2 101730 64
2009-04-30 11:21 51°9.435 2°38.559 4.9 345 14 101730 61
2009-04-30 11:22 51°9.371 2°38.35 3.6 300 14.1 101740 55
2009-04-30 11:23 51°9.327 2°38.212 1.7 327 14.4 101740 54
2009-04-30 11:24 51°9.289 2°38.089 1.9 340 14.7 101740 53
2009-04-30 11:25 51°9.245 2°37.943 2.6 359 14.8 101740 53
2009-04-30 11:26 51°9.197 2°37.789 2.3 356 14.7 101740 56
2009-04-30 11:27 51°9.149 2°37.632 2.7 16 14.4 101740 61
2009-04-30 11:28 51°9.117 2°37.504 2.1 352 14.1 101740 66
2009-04-30 11:29 51°9.106 2°37.406 1.6 338 13.9 101740 64
2009-04-30 11:30 51°9.095 2°37.327 1.4 338 14 101740 63
2009-04-30 11:31 51°9.082 2°37.253 2.2 344 14.2 101740 62
2009-04-30 11:32 51°9.069 2°37.167 2.2 345 14.1 101740 58
2009-04-30 11:33 51°9.06 2°37.084 2.8 19 14.3 101740 62
2009-04-30 11:34 51°9.05 2°37.002 2.3 19 14.1 101740 63
2009-04-30 11:35 51°9.04 2°36.921 2.4 18 14 101740 65
2009-04-30 11:36 51°9.03 2°36.84 2.6 25 13.9 101740 67
2009-04-30 11:37 51°9.02 2°36.76 2.7 23 13.8 101730 69
2009-04-30 11:38 51°9.011 2°36.68 2.3 27 13.7 101730 66
2009-04-30 11:39 51°9.003 2°36.598 2.3 31 13.8 101730 68
2009-04-30 11:40 51°8.994 2°36.517 3.1 29 13.8 101730 68
2009-04-30 11:41 51°8.985 2°36.436 2.9 24 13.7 101740 69
2009-04-30 11:42 51°8.976 2°36.354 3 23 13.7 101740 68
2009-04-30 11:43 51°8.965 2°36.272 3.3 23 13.6 101740 69
2009-04-30 11:44 51°8.954 2°36.189 3.2 25 13.5 101740 70
2009-04-30 11:45 51°8.943 2°36.105 3.6 24 13.4 101730 70
2009-04-30 11:46 51°8.931 2°36.02 3.3 26 13.3 101730 67
2009-04-30 11:47 51°8.92 2°35.935 3.5 26 13.4 101730 68
2009-04-30 11:48 51°8.909 2°35.849 2.8 26 13.4 101730 68
2009-04-30 11:49 51°8.897 2°35.762 2.8 25 13.4 101730 69
2009-04-30 11:50 51°8.884 2°35.676 3.1 28 13.4 101730 69
2009-04-30 11:51 51°8.866 2°35.59 2.9 32 13.3 101730 67
2009-04-30 11:52 51°8.844 2°35.507 2.8 36 13.4 101730 67
2009-04-30 11:53 51°8.822 2°35.426 3.3 37 13.4 101730 67
2009-04-30 11:54 51°8.8 2°35.347 2.9 38 13.5 101730 69
2009-04-30 11:55 51°8.779 2°35.271 3 40 13.5 101730 68
2009-04-30 11:56 51°8.758 2°35.196 2 35 13.5 101730 68
2009-04-30 11:57 51°8.738 2°35.122 2.9 35 13.5 101730 67
2009-04-30 11:58 51°8.718 2°35.048 2.5 39 13.6 101730 68
2009-04-30 11:59 51°8.697 2°34.975 3.1 38 13.5 101730 68
2009-04-30 12:00 51°8.677 2°34.901 2.9 40 13.6 101720 70
2009-04-30 12:01 51°8.657 2°34.827 2 43 13.5 101720 71
2009-04-30 12:02 51°8.638 2°34.755 2 43 13.5 101720 69
2009-04-30 12:03 51°8.624 2°34.686 2 32 13.4 101720 67
2009-04-30 12:04 51°8.621 2°34.613 2.9 9 13.5 101720 63
2009-04-30 12:05 51°8.625 2°34.553 2.9 3 13.8 101720 65
2009-04-30 12:06 51°8.625 2°34.501 2.6 5 13.6 101720 65
2009-04-30 12:07 51°8.62 2°34.451 3.9 11 13.6 101720 66
2009-04-30 12:08 51°8.612 2°34.402 3.6 16 13.5 101720 69
2009-04-30 12:09 51°8.603 2°34.352 3.3 14 13.4 101720 69
2009-04-30 12:10 51°8.598 2°34.296 4.3 2 13.3 101720 70
2009-04-30 12:11 51°8.639 2°34.27 5.4 304 13.2 101720 70
2009-04-30 12:12 51°8.675 2°34.376 6.7 323 13.4 101720 70
2009-04-30 12:13 51°8.721 2°34.515 7.1 302 13.6 101720 68
2009-04-30 12:14 51°8.767 2°34.665 7.9 323 13.8 101720 68
2009-04-30 12:15 51°8.822 2°34.893 11 324 13.9 101710 68
2009-04-30 12:16 51°8.892 2°35.144 10.5 305 13.9 101710 69
2009-04-30 12:17 51°8.959 2°35.402 9.4 303 13.8 101720 70
2009-04-30 12:18 51°9.037 2°35.651 8.5 322 13.8 101710 69
2009-04-30 12:19 51°9.117 2°35.901 8.7 304 13.7 101720 65
2009-04-30 12:20 51°9.192 2°36.157 8 302 13.9 101720 68
2009-04-30 12:21 51°9.26 2°36.375 7 325 13.9 101720 70
2009-04-30 12:22 51°9.301 2°36.447 4.9 330 13.8 101720 70
2009-04-30 12:23 51°9.337 2°36.468 6.9 301 13.8 101730 70
2009-04-30 12:24 51°9.396 2°36.624 9.1 303 13.8 101720 70
2009-04-30 12:25 51°9.472 2°36.874 9.5 304 13.8 101710 70
2009-04-30 12:26 51°9.534 2°37.14 10.5 322 13.8 101710 71
2009-04-30 12:27 51°9.599 2°37.407 9 304 13.8 101710 71
2009-04-30 12:28 51°9.664 2°37.673 9.1 304 13.8 101710 71
2009-04-30 12:29 51°9.73 2°37.937 10.7 301 13.7 101700 72
2009-04-30 12:30 51°9.799 2°38.201 9.4 303 13.7 101710 73
2009-04-30 12:31 51°9.867 2°38.465 9.6 302 13.6 101700 72
2009-04-30 12:32 51°9.933 2°38.732 10.8 307 13.6 101700 72
2009-04-30 12:33 51°9.999 2°38.997 10.1 305 13.6 101710 70
2009-04-30 12:34 51°10.068 2°39.258 9.2 321 13.7 101700 69
2009-04-30 12:35 51°10.137 2°39.519 9.2 306 13.8 101710 69
2009-04-30 12:36 51°10.205 2°39.782 8.1 326 13.8 101710 71
2009-04-30 12:37 51°10.276 2°40.046 7.3 325 14 101720 59
2009-04-30 12:38 51°10.343 2°40.313 7.9 325 14.4 101700 62
2009-04-30 12:39 51°10.402 2°40.592 7.3 303 14.5 101710 62
2009-04-30 12:40 51°10.461 2°40.871 7.3 323 14.6 101700 58
2009-04-30 12:41 51°10.518 2°41.148 5.7 335 14.7 101710 57
2009-04-30 12:42 51°10.519 2°41.437 6.2 326 14.9 101710 57
2009-04-30 12:43 51°10.484 2°41.73 4.9 330 15 101720 54
2009-04-30 12:44 51°10.464 2°42.02 6 301 15.1 101720 58
2009-04-30 12:45 51°10.529 2°42.282 6.2 345 15 101720 61
2009-04-30 12:46 51°10.617 2°42.533 5.9 349 15.2 101710 49
2009-04-30 12:47 51°10.701 2°42.794 6.1 345 15.6 101710 51
2009-04-30 12:48 51°10.78 2°43.057 6.9 346 15.7 101710 52
2009-04-30 12:49 51°10.857 2°43.32 6.6 344 15.8 101710 49
2009-04-30 12:50 51°10.932 2°43.585 10.3 331 15.9 101720 49
2009-04-30 12:51 51°11.007 2°43.852 9.7 330 15.6 101710 61
2009-04-30 12:52 51°11.08 2°44.123 11.1 329 14.9 101720 67
2009-04-30 12:53 51°11.158 2°44.386 13 330 14.5 101700 69
2009-04-30 12:54 51°11.23 2°44.651 12.6 303 14.2 101700 68
2009-04-30 12:55 51°11.291 2°44.922 13.3 300 14 101700 73
2009-04-30 12:56 51°11.365 2°45.187 13.1 328 13.7 101710 77
2009-04-30 12:57 51°11.444 2°45.447 11 328 13.5 101710 83
2009-04-30 12:58 51°11.526 2°45.701 12 329 13.4 101710 83
2009-04-30 12:59 51°11.606 2°45.957 12.7 328 13.4 101710 82
2009-04-30 13:00 51°11.685 2°46.209 11.6 330 13.4 101710 83
2009-04-30 13:01 51°11.762 2°46.464 10.7 328 13.3 101700 84
2009-04-30 13:02 51°11.843 2°46.714 11.4 329 13.3 101710 84
2009-04-30 13:03 51°11.927 2°46.961 11.8 328 13.2 101710 84
2009-04-30 13:04 51°12.009 2°47.212 12.9 327 13.3 101710 83
2009-04-30 13:05 51°12.088 2°47.466 13.7 300 13.3 101700 83
2009-04-30 13:06 51°12.169 2°47.72 12 329 13.3 101710 83
2009-04-30 13:07 51°12.256 2°47.967 12.1 300 13.3 101700 82
2009-04-30 13:08 51°12.343 2°48.213 11.9 327 13.3 101710 82
2009-04-30 13:09 51°12.426 2°48.464 11.2 327 13.3 101700 82
2009-04-30 13:10 51°12.514 2°48.71 11.5 329 13.3 101720 81
2009-04-30 13:11 51°12.604 2°48.959 12.7 330 13.3 101710 79
2009-04-30 13:12 51°12.689 2°49.221 13 300 13.3 101710 81
2009-04-30 13:13 51°12.779 2°49.471 11.9 328 13.2 101710 82
2009-04-30 13:14 51°12.867 2°49.724 12.7 328 13.2 101710 81
2009-04-30 13:15 51°12.951 2°49.977 12.8 331 13.2 101720 81
2009-04-30 13:16 51°13.043 2°50.222 11.1 331 13.2 101720 82
2009-04-30 13:17 51°13.13 2°50.473 13 328 13.1 101720 83
2009-04-30 13:18 51°13.216 2°50.726 11.5 328 13.1 101720 83
2009-04-30 13:19 51°13.305 2°50.975 13.1 329 13.1 101710 83
2009-04-30 13:20 51°13.395 2°51.223 13 327 13.2 101710 83
2009-04-30 13:21 51°13.488 2°51.467 12.3 329 13.2 101710 83
2009-04-30 13:22 51°13.584 2°51.71 13 330 13.1 101710 83
2009-04-30 13:23 51°13.677 2°51.955 13.3 328 13 101720 83
2009-04-30 13:24 51°13.77 2°52.201 11.2 301 13 101710 83
2009-04-30 13:25 51°13.861 2°52.448 11.1 326 13 101710 81
2009-04-30 13:26 51°13.953 2°52.695 11.2 327 13.1 101710 80
2009-04-30 13:27 51°14.043 2°52.946 11.3 327 13 101710 79
2009-04-30 13:28 51°14.133 2°53.198 13.1 328 13.1 101710 79
2009-04-30 13:29 51°14.215 2°53.454 12.1 329 13.1 101710 80
2009-04-30 13:30 51°14.295 2°53.709 12.3 328 13 101710 80
2009-04-30 13:31 51°14.362 2°53.973 11.3 303 13 101710 79
2009-04-30 13:32 51°14.4 2°54.254 12.3 303 13 101720 79
2009-04-30 13:33 51°14.416 2°54.544 11.9 308 13.1 101710 79
2009-04-30 13:34 51°14.392 2°54.836 12 307 13.1 101710 79
2009-04-30 13:35 51°14.323 2°55.116 11.4 303 13.1 101710 79
2009-04-30 13:36 51°14.2 2°55.332 5.4 303 13.1 101720 80
2009-04-30 13:37 51°14.059 2°55.464 5 304 13.2 101740 80
2009-04-30 13:38 51°13.956 2°55.555 5 304 13.4 101730 76
2009-04-30 13:39 51°13.853 2°55.628 3.9 304 13.7 101730 71
2009-04-30 13:40 51°13.767 2°55.688 4 310 13.9 101740 66
2009-04-30 13:41 51°13.721 2°55.758 4.8 303 14.2 101730 62
2009-04-30 13:42 51°13.69 2°55.833 5.9 304 14.5 101730 59
2009-04-30 13:43 51°13.673 2°55.909 4.5 303 14.8 101730 56
2009-04-30 13:44 51°13.665 2°55.95 2.7 309 15.1 101730 56
2009-04-30 13:45 51°13.663 2°55.958 4.2 303 15.3 101730 55